Orbital Elements at Epoch 2459000.5 (2020-May-31.0) TDB
Reference: JPL 34 (heliocentric ecliptic J2000)
Element | Value | Uncertainty (1-sigma) | Units |
e | .1795289261388097 | 2.5535e-08 | |
a | 2.211630093052022 | 5.9555e-09 | au |
q | 1.814578517430116 | 5.6422e-08 | au |
i | 4.151732288124971 | 4.1015e-06 | deg |
node | 40.40855550110378 | 4.0447e-05 | deg |
peri | 248.6767638170507 | 4.2027e-05 | deg |
M | 45.9570661842928 | 1.2003e-05 | deg |
tp | 2458847.138284330430 (2019-Dec-29.63828433) | 3.9838e-05 | TDB |
period | 1201.343389058961 3.29 | 4.8525e-06 1.329e-08 | d yr |
n | .2996645282927774 | 1.2104e-09 | deg/d |
Q | 2.608681668673927 | 7.0247e-09 | au |
|
| | Orbit Determination Parameters
Additional Information
|